Orbital elements of FENGYUN 1C DEB
| Launched | 9 May 1999 |
| Flight ended | – |
| Launch site | Taiyuan Space Center, PRC |
| Owner | People's Republic of China |
| NORAD ID | 30768 |
| Date fetched |
Epoch osculation |
Inc. [°] |
Ecc. | RA asc node [hr] |
Arg Peri. [°] |
Mean anom [°] |
Mean motion [rev/day] |
Abs. mag |
| Date fetched |
Epoch osculation |
Inc. [°] |
Ecc. | RA asc node [hr] |
Arg Peri. [°] |
Mean anom [°] |
Mean motion [rev/day] |
Abs. mag |
| 2026 May 01 17:56 | 2026 Apr 30 05:01:46 | 98.6123 | 0.00242 | 14.5207 | 42.2907 | 18.4565 | 14.50068 | – |
| 2026 Apr 30 17:56 | 2026 Apr 30 05:01:46 | 98.6123 | 0.00242 | 14.5207 | 42.2907 | 18.4565 | 14.50068 | – |
| 2026 Apr 29 17:57 | 2026 Apr 24 04:48:21 | 98.6110 | 0.00249 | 14.1113 | 60.5903 | 18.4565 | 14.50068 | – |
| 2026 Apr 28 17:56 | 2026 Apr 24 04:48:21 | 98.6110 | 0.00249 | 14.1113 | 60.5903 | 18.4565 | 14.50068 | – |
| 2026 Apr 27 17:58 | 2026 Apr 24 04:48:21 | 98.6110 | 0.00249 | 14.1113 | 60.5903 | 18.4565 | 14.50068 | – |
| 2026 Apr 26 17:58 | 2026 Apr 24 04:48:21 | 98.6110 | 0.00249 | 14.1113 | 60.5903 | 18.4565 | 14.50068 | – |
| 2026 Apr 25 17:58 | 2026 Apr 24 04:48:21 | 98.6110 | 0.00249 | 14.1113 | 60.5903 | 18.4565 | 14.50068 | – |
| 2026 Apr 24 17:59 | 2026 Apr 24 04:48:21 | 98.6110 | 0.00249 | 14.1113 | 60.5903 | 18.4565 | 14.50068 | – |
| 2026 Apr 23 17:57 | 2026 Apr 19 05:33:50 | 98.6114 | 0.00253 | 13.7728 | 75.2524 | 18.4565 | 14.50068 | – |
| 2026 Apr 22 17:57 | 2026 Apr 19 05:33:50 | 98.6114 | 0.00253 | 13.7728 | 75.2524 | 18.4565 | 14.50068 | – |
| 2026 Apr 21 17:57 | 2026 Apr 19 05:33:50 | 98.6114 | 0.00253 | 13.7728 | 75.2524 | 18.4565 | 14.50068 | – |
| 2026 Apr 20 17:57 | 2026 Apr 19 05:33:50 | 98.6114 | 0.00253 | 13.7728 | 75.2524 | 18.4565 | 14.50068 | – |
| 2026 Apr 19 17:58 | 2026 Apr 19 05:33:50 | 98.6114 | 0.00253 | 13.7728 | 75.2524 | 18.4565 | 14.50068 | – |
| 2026 Apr 18 17:56 | 2026 Apr 13 05:28:25 | 98.6106 | 0.00258 | 13.3638 | 92.7524 | 18.4565 | 14.50068 | – |
| 2026 Apr 16 17:57 | 2026 Apr 13 05:28:25 | 98.6106 | 0.00258 | 13.3638 | 92.7524 | 18.4565 | 14.50068 | – |
| 2026 Apr 14 17:57 | 2026 Apr 13 05:28:25 | 98.6106 | 0.00258 | 13.3638 | 92.7524 | 18.4565 | 14.50068 | – |
| 2026 Apr 13 17:57 | 2026 Apr 13 05:28:25 | 98.6106 | 0.00258 | 13.3638 | 92.7524 | 18.4565 | 14.50068 | – |
| 2026 Apr 12 17:57 | 2026 Apr 08 06:12:17 | 98.6100 | 0.00262 | 13.0253 | 107.0601 | 18.4565 | 14.50068 | – |
| 2026 Apr 11 17:57 | 2026 Apr 08 06:12:17 | 98.6100 | 0.00262 | 13.0253 | 107.0601 | 18.4565 | 14.50068 | – |
| 2026 Apr 10 17:58 | 2026 Apr 08 06:12:17 | 98.6100 | 0.00262 | 13.0253 | 107.0601 | 18.4565 | 14.50068 | – |
| 2026 Apr 09 18:01 | 2026 Apr 08 06:12:17 | 98.6100 | 0.00262 | 13.0253 | 107.0601 | 18.4565 | 14.50068 | – |
| 2026 Apr 08 17:57 | 2026 Apr 08 06:12:17 | 98.6100 | 0.00262 | 13.0253 | 107.0601 | 18.4565 | 14.50068 | – |
| 2026 Apr 07 17:57 | 2026 Apr 02 06:06:01 | 98.6111 | 0.00266 | 12.6164 | 124.0825 | 18.4565 | 14.50068 | – |
| 2026 Apr 06 17:57 | 2026 Apr 02 06:06:01 | 98.6111 | 0.00266 | 12.6164 | 124.0825 | 18.4565 | 14.50068 | – |
| 2026 Apr 05 17:56 | 2026 Apr 02 06:06:01 | 98.6111 | 0.00266 | 12.6164 | 124.0825 | 18.4565 | 14.50068 | – |
| 2026 Apr 04 17:57 | 2026 Apr 02 06:06:01 | 98.6111 | 0.00266 | 12.6164 | 124.0825 | 18.4565 | 14.50068 | – |